Location: Poughquag
(41.6090°N, 73.6820°W)
Time: 09:02:02
(UTC-05:00)

DIWATA 2B (PO-101) - Pass Details

Date: 22 November 2025
Orbit: 563 x 574 km, 98.1° (Epoch: 07 December)

Event Time Altitude Azimuth Distance (km) Brightness Sun altitude
Exits shadow 17:06:53 - 43° (NE) 2,156 ? -7.3°
Reaches altitude 10° 17:07:54 10° 52° (NE) 1,863 ? -7.5°
Maximum altitude 17:10:31 17° 93° (E) 1,473 ? -7.9°
Drops below altitude 10° 17:13:09 10° 134° (SE) 1,856 ? -8.4°
Sets 17:15:56 0° 155° (SSE) 2,748 ? -8.9°
